Regional Weather Roundup
Issued by NWS Pendleton, OR

Home | Current Version | Previous Version | Text Only | Print | Product List | Glossary On
Versions: 1 2 3 4 5 6 7 8 9 10 11 12 13 14 15 16 17 18 19 20 21 22 23 24 25 26 27 28 29 30 31 32 33 34 35 36 37 38 39 40 41 42 43 44 45 46 47 48 49 50
000
ASUS46 KPDT 290125
RWRPDT
PENDLETON REGIONAL WEATHER ROUNDUP
NATIONAL WEATHER SERVICE PENDLETON OREGON
600 PM PDT TUE MAR 28 2017

NOTE: FAIR INDICATES FEW OR NO CLOUDS BELOW 12,000 FEET WITH NO
SIGNIFICANT WEATHER AND/OR OBSTRUCTIONS TO VISIBILITY.

# INDICATES UNOFFICIAL STATION AND DATA

WAZ520-290210-
EAST SLOPES OF WASHINGTON CASCADES

CITY            SKY/WX      TMP DP  RH  WIND    PRES   REMARKS
#CLE ELUM HS    N/A         43  39  86  CALM    30.11F
#CLE ELUM LAKE  N/A         38  37  96  CALM    30.19F
#GLENWOOD       N/A         48  39  71  CALM    30.23F
#MANASTASH CYN  N/A         43  34  70  CALM    30.11F
#NELSON 3SW     N/A         35  34  96  CALM    30.42F
#NILE           N/A         47  35  63  W2      29.44F
#TEANAWAY 4NE   N/A         44  40  86  CALM    N/A
#TROUT LAKE 1NE N/A         46  39  76  W1      30.25F
#TROUT LAKE 1E  N/A         45  38  76  CALM    30.24F
$$

WAZ521-290210-
SIMCOE HIGHLANDS

CITY            SKY/WX      TMP DP  RH  WIND    PRES   REMARKS
#BICKLETON HS   N/A         45  34  65  W23     30.21F WCI 36
#CENTERVILLE 1SWN/A         49  39  68  CALM    30.20F
#GOLDENDALE 1NE N/A         51  26  37  CALM    N/A
#GOLDENDALE 4W  N/A         50  12  21  W10     30.23F
#GOODNOE HILLS  N/A         54  33  45  W12     30.10F
#LYLE 6NE       N/A         51  39  63  W1      30.21F
#PITT 4SE       N/A         47  37  68  W6      30.27F
$$

WAZ026-290210-
KITTITAS VALLEY

CITY            SKY/WX      TMP DP  RH  WIND    PRES   REMARKS
ELLENSBURG AP   CLOUDY      50  37  61  W12     30.16F
#ELLENSBURG CWU N/A         48  38  68  NW8     30.11F
#ELLENSBURG 3NE N/A         48  39  71  NW3     28.23F
#ELLENSBURG 1E  N/A         49  N/A N/A W1      N/A
#ELLENSBURG 13S N/A         51  36  56  E2      N/A
#KITTITAS 4N    N/A         48  37  65  W5      30.16F
#KITTITAS 3S    N/A         48  40  74  NW6     30.16F
#THORP 6N       N/A         42  39  89  N6      30.22F
$$

WAZ027-290210-
YAKIMA VALLEY

CITY            SKY/WX      TMP DP  RH  WIND    PRES   REMARKS
SUNNYSIDE AP    CLOUDY      55  34  45  SW16    30.20F
YAKIMA AIRPORT  MOCLDY      57  36  45  SW14G26 30.15F
YAKIMA-VAGABOND PTCLDY      54  35  48  SW14    30.13F
#DONALD 2NE     N/A         59   3  10  S14     30.07R
#GRANDVIEW      N/A         57  32  38  W3      30.22F
#MABTON         N/A         57  37  47  W9      30.20F
#MOXEE 2E       N/A         52   0  11  SW10    30.07S
#NACHES 2SW     N/A         53  36  52  W10     30.18S
#TERRACE HTS    N/A         54  36  50  S3      30.15F
#TOPPENISH      N/A         55  37  51  SW7     30.11F
#WEST VALLEY    N/A         55  37  51  S1      30.14F
#W YAKIMA       N/A         55  37  51  SW2     30.16F
#WHITE SWAN 5E  N/A         55  38  53  S14     30.18F
#WILEY CITY 3W  N/A         55  33  43  SW2     30.12F
$$

WAZ028-290210-
LOWER COLUMBIA BASIN...WASHINGTON

CITY            SKY/WX      TMP DP  RH  WIND    PRES   REMARKS
PASCO           MOCLDY      57  34  42  SW15    30.22F
PROSSER AWOS    N/A         57  34  42  SW13    30.22F
RICHLAND AWOS   CLOUDY      58  36  44  S16     30.20F
#BENTON CITY    N/A         56  35  45  W6      30.12F
#CONNELL 5N     N/A         51  43  74  SW3     30.22S
#CONNELL 5NW    N/A         51  42  71  SW7     30.16F
#ELTOPIA 6NW    N/A         54  40  59  SW10    29.16F
#KAHLOTUS       N/A         51  38  61  W21     30.22F
#KENNEWICK 3S   N/A         54  39  57  S3      30.23F
#PATERSON       N/A         54  41  61  CALM    30.21F
#SAGEMOOR 2W    N/A         54  39  57  SW10    30.08S
#TOUCHET 2S     N/A         55  42  61  S3      30.22F
#WEST PASCO     N/A         57  37  47  S5      30.23F
$$

WAZ029-290210-
FOOTHILLS OF THE BLUES...WASHINGTON

CITY            SKY/WX      TMP DP  RH  WIND    PRES   REMARKS
WALLA WALLA AP  CLOUDY      51  40  66  S13     30.25F
#CLYDE 6NW      N/A         52  37  56  SW14    30.23F
#DAYTON SCHOOL  N/A         49  32  52  SE7     30.24F
#LOWDEN 2SE     N/A         54  41  61  S2      30.21F
#PLEASANT VIEW 1N/A         49  38  66  S12     30.27F WCI 44
#PRESCOTT       N/A         54  39  57  SW3     30.23F
#WHITMAN COLLEGEN/A         52  40  63  CALM    30.31F
#WAITSBURG 5S   N/A         48  39  71  SW7     30.35F
#WAITSBURG 8N   N/A         49  N/A N/A S14     30.24R WCI 44
#WALLA WALLA 5E N/A         49  42  77  SE8     N/A
#WHITMAN MISSIONN/A         54  42  64  CALM    30.26F
$$

WAZ030-290210-
BLUE MOUNTAINS...WASHINGTON

CITY            SKY/WX      TMP DP  RH  WIND    PRES   REMARKS
#DIXIE 5SE      N/A         41  36  82  S12     30.15F WCI 34
$$

ORZ009-041-WAZ024-290210-
COLUMBIA RIVER GORGE

CITY            SKY/WX      TMP DP  RH  WIND    PRES   REMARKS
HOOD RIVER AP   MOCLDY      54  41  61  NW7     30.22F
THE DALLES AP   CLOUDY      57  40  53  N10     30.22S
#ARLINGTON AIRPON/A         55  36  49  W7      30.23F
#CELILO DOT     N/A         58  33  39  SW3     N/A
#LYLE           N/A         56  43  62  NW2     30.24F
#MOSIER 1S      N/A         53  28  38  CALM    30.21S
#MURDOCK        N/A         56  42  59  NW6     30.18F
#RUFUS DOT      N/A         58  35  42  NW5     N/A
#SMITHVILLE     N/A         56  42  59  N10     30.17F

$$

ORZ510-290210-
NORTH CENTRAL OREGON

CITY            SKY/WX      TMP DP  RH  WIND    PRES   REMARKS
#ANTELOPE       N/A         50  33  52  SW12    30.16F
#CHENOWITH 1W   N/A         49  37  63  N12     N/A    WCI 44
#COW CYN RST AREN/A         49  32  52  SW6     N/A
#DUFUR          N/A         52  40  63  NE3     30.20F
#DUFUR 9E       N/A         48  38  68  NE5     30.29F
#GRASS VALLEY 1SN/A         50  34  54  W14     30.34F
#KENT DOT       N/A         49  24  37  N14     N/A    WCI 44
#MAUPIN SCHOOL  N/A         57  33  40  W9      30.26F
#MORO SCHOOL    N/A         52  40  63  SW2     30.28F
#SHANIKO 5WSW   N/A         47  23  38  N6      N/A
#SHANIKO 4NW    N/A         45  31  58  W7      30.23F
#TYGH VALLEY 2NEN/A         55  37  51  N5      30.23F
#WAPANITIA AIRPON/A         52  33  48  W8      30.26F
#WASCO DOT      N/A         55  31  40  W2      N/A
#WASCO 5NE      N/A         53  38  57  W3      30.24F
$$

ORZ511-290210-
CENTRAL OREGON

CITY            SKY/WX      TMP DP  RH  WIND    PRES   REMARKS
BEND AIRPORT    PTCLDY      50  27  41  S18     30.23F
MADRAS AIRPORT  CLOUDY      52  32  46  W10     30.27S
PRINEVILLE AP   CLOUDY      50  28  42  W7      30.24F
REDMOND AIRPORT MOCLDY      54  25  32  NW12    30.24S
#ASHWOOD SCHOOL N/A         52  33  48  S1      30.19S
#BEND 1SW       N/A         46  31  56  W2      N/A
#BEND-AWBREY    N/A         52  32  46  SW3     30.26F
#BEND-KIM LN    N/A         52  32  46  N2      30.19F
#CULVER         N/A         51  33  50  SW5     30.19F
#CULVER 8W      N/A         51  32  48  S2      30.21F
#POWELL BUTTE 3EN/A         52  25  35  N6      N/A
#POWELL BUTTE   N/A         50  29  44  N6      30.18R
#PRINEVILLE     N/A         51  30  44  NW3     30.37S
#PRINEVILLE 3N  N/A         51  32  48  W3      30.27F
#WARM SPRINGS   N/A         56  35  45  CALM    30.18F

$$


ORZ509-290210-
EAST SLOPES OF OREGON CASCADES

CITY            SKY/WX      TMP DP  RH  WIND    PRES   REMARKS
SISTERS AWOS    N/A         48  28  46  W9      30.19S
#BLUE BOX PASS  N/A         39  N/A N/A NW2     N/A
#CAMP SHERMAN   N/A         49  31  50  CALM    30.34S
#LA PINE 4NW    N/A         46  27  47  CALM    30.35F
#LAVA BUTTE DOT N/A         45  19  35  S3      N/A
#SISTERS 3N     N/A         48  27  44  CALM    30.32S
#SUNRIVER       N/A         46  28  49  SW6     30.31F
#TUMALO 3W      N/A         52  29  41  NE3     30.14S
#WANOGA BUTTE D N/A         37  27  67  W8      N/A

$$

ORZ044-290210-
LOWER COLUMBIA BASIN...OREGON

CITY            SKY/WX      TMP DP  RH  WIND    PRES   REMARKS
HERMISTON       CLOUDY      57  40  53  CALM    30.22F
#BOARDMAN SCHOOLN/A         56  42  59  S2      30.21F
#BOARDMAN 8SW   N/A         54  44  69  SW2     30.21F
#ECHO 8SW       N/A         57  41  55  CALM    30.22F
#I-84 EX 198 DOTN/A         53  39  59  N7      N/A
#IONE SCHOOL    N/A         52  35  52  CALM    30.25S
#UMATILLA       N/A         57  40  53  CALM    30.16F
$$

ORZ507-290210-
NORTHERN FOOTHILLS OF THE BLUES

CITY            SKY/WX      TMP DP  RH  WIND    PRES   REMARKS
PENDLETON AIRPT MOCLDY      52  42  69  SE8     30.23F
#ADAMS 3WNW     N/A         49  42  77  SE1     30.26F
#ATHENA         N/A         48  42  80  SE2     30.27F
#CAYUSE         N/A         50  42  74  E8      30.24F
#HELIX SCHOOL   N/A         48  42  80  N10     30.25F
#HELIX 3N       N/A         47  41  79  S14     30.18F WCI 41
#HOLDMAN 5SE    N/A         52  43  71  SE2     30.21F
#HOLDMAN 6E     N/A         49  41  74  SE8     30.05F
#M-F FERNDALE   N/A         51  39  63  CALM    30.21F
#M-F GROVE ELEM N/A         50  41  71  CALM    30.21F
#M-FREEWATER 5SEN/A         48  43  83  E9      30.23F
#PENDLETON DNTN N/A         54  36  50  E2      30.22F
#PDT AQUATIC CTRN/A         53  39  59  SE3     30.23F
#PDT SUNRIDGE   N/A         52  43  71  E5      30.24F
#PENDLETON 7NW  N/A         53  42  66  SE7     25.80S
#PILOT ROCK 1S  N/A         52  36  54  SE5     30.22F
#PILOT ROCK     N/A         52  41  66  S2      30.23F
#TUTUILLA       N/A         52  43  71  SE6     30.25F
#UMAPINE 2E     N/A         51  42  71  SE8     30.21F
#WESTON SCHOOL  N/A         47  39  74  S3      30.24F

$$

ORZ508-290210-
SOUTHERN FOOTHILLS OF THE BLUES

CITY            SKY/WX      TMP DP  RH  WIND    PRES   REMARKS
LEXINGTON       MOCLDY      54  37  52  SW5     30.25F
#AJAX           N/A         51  28  41  SW9     30.35S
#CONDON SCHOOL  N/A         50  32  50  W9      30.16S
#CONDON 5W      N/A         47  29  49  W14     30.19S WCI 41
#HEPPNER EOC    N/A         52  35  52  CALM    30.18F
#HEPPNER 4NE    N/A         49  35  58  SW6     30.26F
#LEXINGTON 2SE  N/A         56  37  49  SW3     30.19F
#MIKKALO        N/A         53  37  54  N1      30.31S
#OLEX 4N        N/A         53  40  61  CALM    30.20S
#RUGGS 5NE      N/A         48  34  58  W7      30.40S
#RUGGS 2SW      N/A         50  34  54  W7      30.28F

$$

ORZ502-503-290210-
BLUE MOUNTAINS

CITY            SKY/WX      TMP DP  RH  WIND    PRES   REMARKS
MEACHAM         LGT RAIN    41  35  79  CALM    30.24F
#BATTLE MTN DOT N/A         41  33  73  S6      N/A
#GREENHORN 9SW  N/A         46  36  68  CALM    26.43S
#HARDMAN 10S    N/A         43  34  70  S3      30.42F
#HEPPNER 15SE   N/A         42  34  73  CALM    30.21F
#LADD CYN SMT   N/A         45  34  65  N3      N/A
#LADD CREEK ODOTN/A         47  34  60  NE5     N/A
#LONG CREEK HS  N/A         47  38  71  CALM    N/A
#N POWDER DOT   N/A         48  32  54  N3      N/A
#PIKES PEAK     N/A         39  35  85  W14     27.99S WCI 31
#TROY SCHOOL    N/A         52  40  63  S5      30.11S
#UKIAH          N/A         45  37  73  CALM    30.21F
#WESTON 4E      N/A         41  38  89  SE3     30.26F
$$

ORZ505-290210-
JOHN DAY BASIN

CITY            SKY/WX      TMP DP  RH  WIND    PRES   REMARKS
JOHN DAY        CLOUDY      49  34  56  CALM    30.26F
#JOHN DAY KJDY  N/A         52  N/A N/A W1      29.52R
#ANTELOPE 9ESE  N/A         58  31  36  W7      N/A
#DAYVILLE SCHOOLN/A         53  34  48  E2      30.19F
#MITCHELL       N/A         55  37  51  CALM    30.37F
#MITCHELL 8NW   N/A         51  30  44  CALM    30.21S
#MONUMENT HS    N/A         55  32  41  CALM    30.18F
#MT. VERNON 5SE N/A         48  34  58  CALM    30.21F
#SPRAY SCHOOL   N/A         55  N/A N/A CALM    N/A
#WINLOCK        N/A         49  35  58  W10     30.18F
$$

ORZ506-290210-
OCHOCO AND JOHN DAY HIGHLANDS

CITY            SKY/WX      TMP DP  RH  WIND    PRES   REMARKS
#HORSE RIDGE DO N/A         49  24  37  W9      N/A
#PAULINA SCHOOL N/A         51  32  48  SW1     N/A
#PINE MTN OBS   N/A         38  28  67  SE10    N/A
#PRAIRIE CITY   N/A         49  35  58  W1      30.42F
#SENECA 9NW     N/A         43  34  70  CALM    30.33F
$$

ORZ049-290210-
GRANDE RONDE VALLEY

CITY            SKY/WX      TMP DP  RH  WIND    PRES   REMARKS
LA GRANDE       CLOUDY      46  37  71  W7      30.25F
#COVE           N/A         47  41  79  N1      30.27F
#COVE SCHOOL    N/A         46  38  73  CALM    30.26S
#COVE 6NW       N/A         47  38  71  CALM    30.31F
#ELGIN 3N       N/A         45  34  65  CALM    30.21F
#ELGIN 1E       N/A         46  36  68  CALM    N/A
#IMBLER SCHOOL  N/A         44  35  70  CALM    30.21S
#ISLAND CITY 4N N/A         56  43  62  SW3     30.22F
#UNION 1S       N/A         48  38  68  E6      30.31S
$$

ORZ050-290210-
WALLOWA COUNTY

CITY            SKY/WX      TMP DP  RH  WIND    PRES   REMARKS
JOSEPH AIRPORT  LGT DRIZZLE 43  34  70  CALM    30.25R
#IMNAHA SCHOOL  N/A         52  39  61  E1      30.24R
#IMNAHA 10S     N/A         48  38  68  CALM    30.21R
#JOSEPH 3N      N/A         43  30  60  CALM    30.24R
#JOSEPH 3W      N/A         40  36  85  CALM    30.06R
#LOSTINE        N/A         45  37  73  NW2     30.09S
#LOSTINE 3SE    N/A         44  34  68  N3      30.28R
#MT HOWARD 8000 N/A         27  25  92  W1      30.18S
#PROMISE 1S     N/A         40  34  79  E2      30.40R
#WALLOWA SCHOOL N/A         46  36  68  NW1     30.20S



$$



USA.gov is the U.S. government's official web portal to all federal, state and local government web resources and services.